Regional Weather Roundup
Issued by NWS

Home | Current Version | Previous Version | Text Only | Print | Product List | Glossary On
Versions: 1 2 3 4 5 6 7 8 9 10 11 12 13 14 15 16 17 18 19 20 21 22 23 24 25 26 27 28
000
ASUS45 KREV 291010
RWRNV
NEVADA REGIONAL WEATHER ROUNDUP
NATIONAL WEATHER SERVICE RENO NV
300 AM PDT WED MAR 29 2017

NOTE: "FAIR" INDICATES FEW OR NO CLOUDS BELOW 12,000 FEET WITH NO
SIGNIFICANT WEATHER AND/OR OBSTRUCTIONS TO VISIBILITY.

NVZ001-003-004-291100-
WESTERN NEVADA

CITY           SKY/WX    TMP DP  RH WIND       PRES   REMARKS
RENO           PTCLDY    40  28  62 W3        30.29F
CARSON CITY    FAIR      34  27  75 CALM      30.30S
MINDEN         FAIR      30  25  80 CALM      30.29F
FALLON         CLEAR     35  20  54 S7        30.27S
LOVELOCK       CLEAR     28  22  78 SE6       30.27S
HAWTHORNE      CLEAR     37  19  48 SW3       30.28S
$$

NVZ002-CAZ072-073-291100-
NORTHERN AND CENTRAL SIERRA

CITY           SKY/WX    TMP DP  RH WIND       PRES   REMARKS
S. LAKE TAHOE  CLEAR     29  25  85 SW5       30.29F
TRUCKEE        CLEAR     27  23  86 CALM      30.31S
SQUAW VLY 8000   N/A     32  25  74 NW2         N/A
MAMMOTH LAKES  FAIR      29  21  71 NW3       30.30S
BRIDGEPORT       N/A     27  20  75 CALM      30.29F
$$

NVZ030-031-036-291100-
NORTHERN NEVADA

CITY           SKY/WX    TMP DP  RH WIND       PRES   REMARKS
ELKO           CLEAR     29  26  89 CALM      30.26F
WINNEMUCCA     CLEAR     27  26  96 CALM      30.27S
WENDOVER       CLEAR     40  27  59 S5        30.25S
$$

NVZ035-037-291100-
CENTRAL NEVADA

CITY           SKY/WX    TMP DP  RH WIND       PRES   REMARKS
ELY            CLEAR     24  21  88 SE3       30.26F
EUREKA           N/A     28  23  81 S6        30.27F
$$

NVZ013-014-291100-
SOUTH CENTRAL NEVADA

CITY           SKY/WX    TMP DP  RH WIND       PRES   REMARKS
TONOPAH        CLEAR     38  26  62 N6        30.26S
$$

NVZ017-020-022-291100-
SOUTHERN NEVADA

CITY           SKY/WX    TMP DP  RH WIND       PRES   REMARKS
LAS VEGAS      PTCLDY    58  25  28 N7        30.11S
N. LAS VEGAS   CLEAR     54  26  34 CALM      30.12S
NELLIS AFB     CLEAR     55  28  34 NE12      30.11S
HENDERSON      CLEAR     51  26  37 CALM      30.14R
MERCURY        CLEAR     50  24  36 E7        30.16S
$$




USA.gov is the U.S. government's official web portal to all federal, state and local government web resources and services.